Temperature
16 17 16 15 14 14 14 13 13 13 12 12 12 12 12 11 11 12 11 12 12 12 12 12 12 12 12 12 13 13 13 13 12 12 12 12 12 13 13 13 14 14 14
17 17 16 15 14 14 13 13 13 12 12 12 12 12 11 11 11 11 11 11 11 11 11 11 11 12 12 12 12 13 13 12 12 11 11 12 12 12 12 13 13 13 14
17 17 16 15 14 14 13 13 13 12 12 12 11 11 11 11 11 11 11 11 11 11 11 11 11 12 12 12 13 13 13 12 11 10 11 11 11 11 11 12 12 12 13
17 17 16 15 14 14 13 13 13 12 12 12 11 11 11 11 11 11 11 11 11 11 11 11 11 12 12 12 13 13 12 12 11 10 11 11 11 10 11 11 11 11 12
17 17 16 15 14 14 13 13 12 12 12 11 11 11 11 11 11 11 11 11 11 11 11 11 11 12 12 12 13 12 12 11 11 11 11 11 11 10 10 11 11 11 11
17 16 16 15 14 14 13 13 12 12 12 11 11 11 11 11 11 11 11 11 11 11 11 11 11 12 12 12 12 12 12 11 11 11 11 11 11 10 10 10 11 11 11
16 16 16 15 15 14 13 13 12 12 12 11 11 11 11 11 11 11 11 11 11 11 11 11 11 12 12 12 12 12 12 12 11 11 11 11 11 10 10 10 10 10 10
16 16 16 15 15 14 13 13 12 12 12 11 11 11 10 10 10 11 11 11 11 11 11 11 11 12 12 12 12 12 11 11 11 11 11 11 11 10 10 10 10 10 10
16 16 16 15 14 14 13 13 12 12 12 11 11 11 10 10 10 10 11 11 11 11 11 11 11 11 11 11 11 11 11 11 10 10 10 11 11 10 10 10 9 9 9
16 16 16 15 14 14 13 12 12 12 11 11 11 11 11 10 10 10 10 11 11 11 11 11 11 11 11 10 10 10 10 10 10 9 10 10 10 10 10 10 9 9 9
15 15 15 15 14 13 13 12 12 11 11 11 11 10 10 10 10 10 10 10 10 10 10 10 10 10 10 10 10 10 10 9 9 9 9 10 10 10 10 10 9 9 9
16 15 15 14 14 13 12 12 12 11 11 11 11 10 10 10 9 9 9 10 10 10 10 10 9 9 9 9 9 9 9 9 9 9 9 9 9 9 9 9 9 9 8
16 15 14 14 13 13 12 12 12 11 11 11 10 10 10 9 9 9 9 9 9 9 9 9 9 9 9 8 8 8 8 8 8 8 8 9 9 9 9 9 9 8 8
16 15 14 14 13 13 12 12 12 11 11 11 10 10 10 10 9 9 9 9 9 9 9 8 8 8 8 8 8 8 8 8 8 8 8 8 8 8 9 9 8 8 8
16 16 15 14 13 13 12 12 12 11 11 11 10 10 10 10 10 9 9 9 9 9 9 8 8 8 8 8 8 8 8 8 8 8 8 8 8 8 8 8 8 8 8
17 16 15 14 13 13 12 12 12 12 11 11 10 10 10 10 10 9 9 9 9 9 8 8 8 8 8 8 8 8 8 8 8 8 8 8 8 8 8 8 8 8 8
17 16 15 14 13 13 12 12 12 11 11 11 11 10 10 10 10 10 9 9 9 9 9 8 8 8 8 8 8 8 8 8 8 8 8 7 7 7 8 8 8 8 8
17 16 15 14 14 13 13 12 12 11 11 11 11 11 10 10 10 10 9 9 9 9 9 8 8 8 8 8 8 8 8 8 8 8 7 7 7 7 7 7 7 7 7
17 16 15 15 14 13 13 12 12 11 11 11 11 11 10 10 10 10 9 9 9 9 9 9 8 8 8 8 8 8 8 8 8 8 7 7 7 7 7 7 7 7 7
17 16 15 15 14 13 12 12 11 11 11 11 11 11 10 10 10 10 9 9 9 9 9 9 8 8 8 8 8 8 9 9 8 8 7 7 7 7 6 6 6 6 6
17 16 15 15 14 13 12 12 12 11 11 11 11 11 11 10 10 10 9 9 9 9 9 9 8 8 8 8 8 8 9 8 8 7 7 7 7 6 6 6 5 5 5
17 16 15 15 14 13 13 12 12 12 11 11 11 11 11 10 10 10 10 9 9 9 9 9 9 8 8 8 7 7 7 8 7 7 7 7 6 6 6 5 5 5 5
16 16 16 15 14 13 13 12 12 11 11 11 11 11 10 10 10 10 10 9 9 9 9 9 8 8 8 7 7 6 6 6 6 7 6 6 6 5 5 5 5 5 5
16 16 15 15 14 13 12 12 12 11 11 11 11 11 10 10 10 10 10 10 9 9 9 9 8 8 8 7 7 6 6 5 5 5 6 6 5 5 5 5 5 5 5
16 15 15 14 14 13 12 12 12 11 11 11 11 11 10 10 10 10 10 10 9 9 9 9 8 8 8 7 7 6 6 5 5 4 4 5 5 5 5 5 5 5 4
15 15 14 14 14 13 12 12 11 11 11 11 10 10 10 10 10 10 10 10 9 9 9 9 8 8 8 7 7 6 6 5 5 4 3 4 5 5 5 5 5 4 4
Wind_Speed
11 18 20 18 17 16 15 14 14 13 14 14 14 15 15 15 16 16 16 16 17 17 17 18 18 18 18 18 18 18 18 18 18 19 20 20 20 20 20 20 18 18 20
15 21 21 19 17 16 16 15 14 14 14 14 14 15 15 15 15 15 16 16 16 16 17 17 17 17 17 17 17 16 16 16 16 16 18 19 19 19 19 19 18 17 18
16 21 20 19 18 17 16 15 15 14 14 14 14 14 14 14 14 14 15 15 15 15 15 16 16 16 16 16 16 15 14 14 13 15 16 16 16 17 17 17 17 17 17
18 21 19 19 18 17 16 16 15 15 14 14 14 14 13 13 13 13 13 14 14 14 14 14 14 14 15 15 14 14 13 12 13 14 15 15 14 15 15 15 15 15 15
17 20 20 20 18 18 17 16 16 15 15 14 14 13 13 13 13 12 12 13 13 13 13 13 13 13 13 13 13 12 11 11 12 14 14 15 13 13 13 13 13 13 13
13 20 22 21 19 18 17 17 17 16 15 14 13 13 12 12 12 12 12 12 12 12 12 12 12 12 12 12 11 11 10 11 11 13 14 14 12 11 12 12 11 11 12
13 20 22 20 19 19 18 17 16 16 15 14 13 13 12 12 11 11 11 11 11 11 11 10 10 10 10 10 10 9 8 9 8 9 11 12 10 10 10 10 10 10 10
13 19 20 20 20 19 18 17 16 16 15 14 13 13 12 11 10 10 10 9 9 9 9 9 9 9 9 8 8 7 7 8 7 6 9 9 8 9 9 8 8 8 8
13 17 18 18 19 19 18 18 17 16 15 14 14 13 12 11 10 9 9 8 8 7 7 7 7 6 6 6 5 5 6 7 7 2 7 8 7 8 8 8 8 8 7
12 13 15 18 18 17 17 18 17 16 16 15 14 14 12 11 9 9 8 7 6 5 5 4 4 3 3 2 1 3 6 9 6 1 8 7 6 7 8 9 9 9 9
11 12 13 14 17 18 18 17 17 17 16 16 15 14 13 12 11 10 9 7 5 4 3 2 1 1 2 3 3 4 7 8 3 1 6 5 4 7 9 9 9 10 10
12 12 12 12 14 17 17 17 16 16 16 16 15 15 13 11 11 10 10 8 6 4 3 3 3 5 6 6 6 7 7 6 5 0 6 4 3 6 9 10 10 10 11
12 12 13 12 14 14 12 15 13 14 15 15 16 15 12 10 10 10 10 9 8 7 6 6 6 7 6 3 3 6 5 5 6 3 4 3 2 6 9 11 11 11 11
12 13 12 11 11 13 14 13 12 11 12 12 14 15 11 8 7 8 8 9 9 7 6 5 6 6 5 4 4 5 5 5 6 5 3 4 3 6 9 11 11 11 11
13 14 13 12 12 11 10 10 11 10 11 13 14 14 12 8 5 6 6 6 6 5 5 4 5 4 3 4 4 5 6 7 7 6 3 5 5 5 8 9 10 11 11
13 14 13 13 12 11 9 8 8 11 12 13 13 14 14 10 7 6 4 4 4 4 3 3 4 3 3 3 4 7 7 7 7 8 7 5 5 4 5 7 8 10 10
13 14 14 14 13 13 11 9 9 11 13 11 13 15 14 12 9 7 4 3 4 4 3 3 4 3 3 3 4 6 6 6 7 8 7 5 3 2 2 4 6 8 8
12 14 15 13 14 14 11 10 9 11 11 10 13 13 14 13 11 8 4 3 5 4 2 1 1 2 3 3 3 3 4 6 7 6 6 5 2 1 1 2 3 6 8
13 14 15 14 14 14 12 9 9 10 10 11 12 12 13 13 12 8 5 4 5 3 2 1 1 1 2 3 3 4 4 4 4 5 4 3 1 1 1 2 3 5 6
11 13 14 14 13 13 11 8 7 7 7 9 10 11 12 12 12 9 6 5 5 2 2 1 2 1 1 2 3 5 5 5 3 1 1 2 0 1 2 3 4 5 6
11 12 14 14 13 12 11 10 9 8 7 6 7 12 13 12 12 9 5 5 4 3 3 2 1 1 1 1 2 4 5 5 2 1 0 1 1 2 3 4 5 4 5
11 11 12 14 14 13 11 10 8 7 6 6 6 9 12 12 12 9 6 4 4 3 2 2 1 1 1 1 1 2 4 5 3 2 1 1 2 3 3 5 5 6 7
11 12 11 13 13 13 11 9 7 6 5 4 6 6 8 12 11 10 8 6 5 4 3 3 2 2 0 1 1 1 0 3 4 4 3 2 2 2 3 6 6 8 8
10 10 10 12 12 12 12 12 12 9 7 7 7 6 7 10 11 11 9 7 5 4 4 3 3 2 2 1 1 1 2 2 1 4 4 3 4 4 5 5 6 7 8
9 9 9 10 11 11 12 13 12 9 7 6 8 9 8 6 9 10 9 7 6 4 4 4 3 2 2 2 1 1 1 1 2 3 5 5 4 4 4 4 6 7 8
8 8 8 10 10 11 12 12 12 11 10 10 10 9 8 6 6 8 9 7 6 5 5 4 3 3 2 2 2 2 2 2 2 3 5 6 6 5 6 5 5 6 8
Wind_Direction
131 142 150 147 143 138 133 127 120 113 106 99 95 91 86 83 78 75 75 73 70 69 70 69 68 68 66 65 64 63 62 62 62 64 62 61 60 58 56 54 54 51 52
136 143 151 148 145 141 134 127 123 119 111 102 96 92 88 85 80 77 76 74 71 69 70 70 69 69 67 66 66 64 63 62 61 62 65 60 58 58 57 55 54 53 53
135 142 151 150 146 142 135 131 128 122 115 108 101 96 92 89 84 81 78 77 74 72 71 71 70 69 68 67 66 64 62 60 56 58 63 59 55 56 55 55 53 52 52
137 144 152 151 148 144 138 134 131 126 119 113 107 101 97 93 89 85 82 80 78 76 73 72 71 71 69 68 65 63 60 55 50 57 58 57 53 55 54 53 52 52 51
138 146 148 151 150 146 141 138 133 129 123 117 112 106 101 97 94 91 87 84 82 80 77 74 72 71 70 67 64 60 53 41 45 56 56 56 45 51 52 50 49 48 47
139 140 146 152 151 148 143 140 136 133 128 123 119 114 109 104 100 96 93 89 86 84 81 77 74 71 69 66 61 54 41 31 53 57 56 51 36 43 48 46 44 43 42
141 138 148 154 154 151 147 145 142 138 135 131 126 123 117 111 107 102 99 95 91 87 83 80 75 72 68 64 58 49 30 14 60 68 67 55 33 36 39 38 36 35 35
139 139 149 155 155 154 152 151 148 144 140 138 134 130 124 120 116 111 106 100 94 89 84 80 76 71 65 60 52 37 13 2 21 63 83 67 33 22 24 24 22 20 20
139 141 149 156 157 156 155 155 152 149 146 145 141 137 133 129 125 120 114 108 101 94 87 80 75 70 63 56 45 17 347 335 335 23 86 73 31 11 7 7 4 1 359
142 146 153 159 160 159 157 157 155 153 151 149 145 142 140 138 136 133 127 121 114 106 95 82 74 69 60 52 18 321 312 308 298 56 90 76 25 360 354 353 350 345 343
154 154 158 163 164 163 161 161 158 158 156 152 150 150 152 158 157 154 140 142 140 136 127 116 97 263 262 252 242 267 287 289 301 89 110 87 19 349 342 340 338 335 333
169 165 164 167 165 165 165 161 164 165 163 163 161 165 176 172 160 154 152 163 173 183 195 212 241 263 263 242 232 254 272 297 321 288 131 114 11 338 331 328 327 326 326
174 171 169 170 166 165 162 163 169 168 170 174 170 175 179 161 150 149 161 178 195 206 216 217 239 249 265 271 256 264 289 326 314 329 144 152 327 325 322 320 320 320 320
175 177 173 168 164 166 164 167 167 166 172 174 176 177 173 164 166 164 175 181 194 203 210 221 240 249 260 273 277 295 308 297 298 304 216 208 262 309 315 316 316 317 318
179 177 176 171 168 167 163 166 171 170 171 172 175 177 174 169 174 168 183 180 195 200 205 235 258 268 284 296 301 301 296 296 300 305 283 239 249 285 308 314 317 319 320
182 177 176 176 171 166 168 169 171 173 171 170 173 180 182 180 173 170 179 182 200 206 225 248 275 294 301 312 312 305 301 309 316 318 306 275 254 267 300 317 325 327 328
181 177 177 180 173 171 174 174 173 173 171 170 176 184 184 181 175 175 178 180 198 204 234 267 301 324 317 308 300 301 309 314 309 306 311 309 287 241 264 318 332 334 334
177 176 177 181 177 175 175 175 174 174 170 173 176 180 183 181 178 177 181 190 190 187 208 238 291 313 306 309 310 311 312 304 299 303 309 312 340 80 146 290 316 325 330
178 176 176 178 179 176 175 175 173 173 171 174 174 179 181 178 180 181 187 184 180 172 195 225 241 262 300 306 300 296 292 285 285 299 313 335 19 59 237 244 264 294 311
176 173 174 175 178 175 174 173 170 174 173 172 174 178 177 179 181 182 179 176 165 157 195 224 243 242 262 299 317 305 287 269 255 255 313 327 238 255 280 278 271 279 292
175 175 175 175 179 176 177 177 178 182 176 172 170 174 176 179 179 177 167 163 160 175 192 202 181 327 308 0 349 316 300 278 232 170 318 354 339 309 289 285 285 298 305
180 180 176 176 179 180 178 176 175 171 169 166 159 169 175 176 176 174 167 168 168 171 185 176 133 111 315 56 64 343 335 338 356 347 333 288 302 319 307 305 314 316 311
182 182 183 178 177 177 169 162 156 146 143 153 163 169 173 172 170 167 171 166 163 166 170 161 147 145 207 319 113 127 17 299 321 312 302 301 313 318 311 310 302 305 307
179 174 177 172 173 174 167 167 167 170 172 175 168 169 171 169 165 167 169 161 157 154 157 162 151 155 153 222 287 182 201 204 272 309 313 319 333 318 299 297 300 303 302
162 162 168 166 171 172 170 171 174 175 173 160 160 164 169 166 162 164 165 160 159 157 157 151 151 167 166 181 191 216 270 280 224 235 284 300 309 292 295 294 291 287 287
147 152 161 166 172 173 174 177 182 178 170 164 166 169 170 166 164 165 166 162 161 157 157 158 164 172 180 189 197 197 201 221 240 241 263 289 294 288 294 279 275 272 272
Height
1532 1533 1535 1537 1539 1540 1542 1543 1544 1545 1546 1547 1547 1548 1548 1548 1548 1548 1548 1549 1549 1549 1549 1549 1548 1548 1548 1548 1548 1548 1548 1548 1548 1548 1547 1547 1547 1547 1547 1546 1547 1547 1547
1531 1533 1535 1537 1539 1541 1542 1544 1545 1546 1547 1548 1548 1549 1549 1549 1549 1549 1549 1549 1550 1550 1550 1549 1549 1549 1548 1548 1548 1548 1549 1549 1549 1549 1548 1548 1548 1547 1547 1547 1547 1547 1546
1531 1533 1535 1537 1539 1541 1543 1544 1545 1547 1547 1548 1549 1549 1550 1550 1550 1550 1550 1550 1550 1550 1550 1550 1550 1550 1549 1549 1549 1550 1550 1550 1550 1550 1549 1549 1548 1548 1548 1547 1547 1547 1546
1531 1533 1535 1537 1539 1541 1543 1545 1546 1547 1548 1549 1550 1550 1551 1551 1551 1551 1551 1551 1551 1551 1551 1551 1551 1551 1550 1550 1551 1551 1551 1551 1551 1551 1550 1550 1549 1549 1548 1548 1547 1547 1547
1532 1534 1535 1538 1540 1542 1543 1545 1546 1547 1549 1549 1550 1551 1551 1551 1552 1552 1552 1552 1552 1552 1552 1552 1552 1552 1552 1552 1552 1552 1552 1552 1552 1552 1551 1551 1550 1550 1549 1549 1548 1548 1547
1533 1534 1536 1538 1540 1542 1543 1545 1547 1548 1549 1550 1550 1551 1552 1552 1552 1552 1552 1553 1553 1553 1553 1553 1553 1553 1553 1553 1553 1553 1553 1553 1553 1553 1552 1552 1552 1551 1551 1550 1549 1548 1548
1532 1533 1536 1538 1540 1542 1543 1545 1547 1548 1549 1550 1551 1552 1552 1553 1553 1553 1553 1554 1554 1554 1554 1554 1554 1554 1554 1554 1554 1555 1555 1554 1554 1554 1553 1553 1553 1552 1552 1551 1550 1549 1549
1532 1533 1536 1538 1539 1541 1543 1545 1547 1548 1549 1550 1551 1552 1553 1553 1553 1554 1554 1554 1555 1555 1555 1555 1555 1555 1555 1556 1556 1556 1556 1555 1555 1555 1554 1554 1553 1553 1552 1552 1551 1550 1550
1532 1532 1535 1537 1539 1541 1543 1545 1546 1548 1549 1550 1551 1552 1553 1553 1554 1554 1555 1555 1555 1556 1556 1556 1556 1556 1556 1557 1557 1557 1556 1556 1556 1555 1555 1554 1554 1553 1552 1552 1551 1550 1550
1531 1532 1533 1536 1538 1540 1542 1544 1546 1547 1549 1550 1551 1552 1553 1554 1554 1555 1555 1556 1556 1556 1556 1557 1557 1557 1557 1557 1557 1557 1557 1557 1556 1556 1555 1554 1554 1553 1552 1551 1551 1550 1549
1530 1531 1532 1534 1536 1538 1540 1542 1545 1547 1548 1550 1551 1552 1553 1554 1555 1555 1556 1556 1557 1557 1557 1557 1557 1558 1558 1558 1558 1558 1557 1557 1556 1556 1555 1554 1553 1552 1551 1550 1550 1549 1548
1527 1529 1530 1532 1534 1536 1539 1541 1543 1545 1547 1549 1550 1552 1553 1554 1555 1555 1556 1556 1557 1557 1557 1557 1558 1558 1558 1557 1557 1557 1557 1556 1556 1555 1554 1553 1552 1551 1550 1549 1548 1547 1547
1524 1526 1528 1531 1533 1535 1537 1539 1541 1543 1545 1547 1549 1551 1552 1554 1555 1555 1556 1556 1557 1557 1557 1557 1558 1557 1557 1558 1557 1557 1556 1556 1555 1555 1553 1552 1551 1549 1548 1547 1546 1545 1544
1521 1523 1526 1528 1530 1533 1535 1537 1539 1541 1544 1546 1548 1550 1551 1553 1554 1555 1555 1556 1556 1557 1557 1557 1557 1557 1557 1557 1557 1556 1556 1555 1554 1553 1551 1550 1549 1547 1546 1545 1544 1543 1542
1518 1520 1522 1525 1527 1530 1532 1535 1537 1540 1542 1544 1546 1548 1550 1551 1553 1554 1555 1555 1556 1556 1556 1557 1557 1557 1557 1556 1556 1555 1554 1553 1552 1551 1550 1548 1546 1545 1543 1542 1541 1540 1539
1513 1516 1519 1521 1524 1527 1529 1532 1535 1537 1540 1542 1544 1546 1548 1550 1551 1553 1554 1554 1555 1555 1556 1556 1556 1556 1556 1555 1554 1553 1552 1551 1550 1549 1547 1546 1544 1542 1541 1540 1538 1537 1536
1509 1512 1514 1517 1520 1523 1526 1529 1532 1535 1537 1540 1542 1544 1546 1548 1550 1551 1552 1553 1553 1554 1554 1554 1554 1554 1553 1553 1552 1551 1550 1549 1547 1546 1545 1543 1542 1540 1538 1537 1536 1535 1533
1505 1507 1510 1513 1516 1519 1522 1526 1529 1532 1534 1537 1539 1542 1544 1546 1547 1549 1550 1551 1552 1552 1552 1552 1552 1552 1551 1550 1549 1548 1547 1546 1544 1543 1542 1540 1539 1537 1536 1535 1533 1532 1531
1499 1502 1505 1508 1512 1515 1519 1522 1526 1529 1531 1534 1537 1539 1541 1543 1545 1546 1548 1549 1549 1550 1550 1550 1550 1549 1549 1548 1546 1545 1544 1542 1541 1540 1539 1538 1537 1535 1534 1532 1531 1530 1529
1495 1497 1500 1504 1507 1511 1515 1519 1522 1525 1528 1531 1533 1536 1538 1540 1542 1544 1545 1546 1547 1547 1548 1547 1547 1547 1546 1545 1543 1542 1541 1539 1538 1537 1537 1536 1535 1533 1532 1531 1529 1528 1526
1490 1493 1495 1498 1502 1506 1510 1513 1517 1520 1524 1527 1530 1532 1535 1537 1539 1541 1542 1543 1544 1545 1545 1545 1545 1544 1544 1543 1541 1539 1538 1537 1536 1535 1535 1534 1533 1532 1530 1529 1527 1525 1524
1484 1487 1490 1493 1497 1501 1504 1508 1512 1517 1520 1523 1526 1529 1531 1533 1535 1537 1539 1540 1541 1542 1542 1542 1542 1542 1542 1541 1540 1537 1536 1535 1534 1534 1533 1532 1531 1530 1528 1527 1525 1523 1521
1478 1481 1485 1488 1492 1496 1500 1505 1510 1513 1517 1519 1522 1525 1527 1530 1532 1534 1536 1537 1538 1539 1539 1540 1540 1539 1539 1539 1538 1538 1536 1534 1532 1531 1530 1529 1528 1527 1525 1524 1522 1520 1518
1473 1477 1480 1484 1488 1492 1496 1500 1503 1506 1509 1513 1517 1520 1524 1526 1529 1531 1532 1534 1535 1536 1536 1537 1537 1537 1536 1536 1535 1535 1535 1534 1532 1528 1526 1526 1525 1523 1522 1520 1518 1516 1514
1468 1472 1476 1480 1483 1487 1491 1495 1499 1502 1506 1510 1513 1516 1519 1522 1525 1527 1529 1530 1532 1533 1533 1534 1534 1534 1533 1533 1532 1532 1531 1530 1529 1528 1523 1521 1520 1519 1517 1515 1513 1511 1509
1464 1467 1472 1475 1479 1483 1487 1491 1495 1498 1502 1506 1508 1512 1515 1518 1520 1523 1525 1527 1528 1529 1530 1530 1530 1530 1530 1530 1529 1528 1528 1527 1525 1524 1521 1517 1514 1513 1512 1510 1508 1506 1504